CYGFM02

Last updated on Sun Oct 06 2024 00:02:17 GMT+0000 (Coordinated Universal Time)

1 41886U 16078C 24279.51115872 .00029466 00000+0 92493-3 0 9999 2 41886 34.9486 305.8766 0012571 141.3878 218.7740 15.31987707433160
UTC large
Height (km)
Speed (km/s)
/
Latitude / Longitude
Inclination (degrees)
Orbital Period (minutes)
Azimuth
Elevation
Range (km)
Doppler Factor

Next 0 passes for location: London (51.5072 / 0.1276)

Sorry there are no passes over London.